Location: Newark
(37.8333°N, 119.5000°W)
Time: 05:37:40
(UTC+00:00)

Tiros 1 despin weight - Pass Details

Date: 20 August 2019
Orbit: 594 x 642 km, 48.2° (Epoch: 17 September)

Event Time Altitude Azimuth Distance (km) Brightness Sun altitude
Rises 07:47:50 0° 230° (SW) 2,824 - -39.6°
Reaches altitude 10° 07:50:06 10° 228° (SW) 1,929 - -39.6°
Maximum altitude 07:54:31 74° 144° (SE) 629 - -39.6°
Drops below altitude 10° 07:59:00 10° 59° (ENE) 1,964 - -39.7°
Sets 08:01:20 0° 58° (ENE) 2,879 - -39.7°
